Weather History for Escanaba, MI

Change the Weather History Date:

Friday, May 3, 2013

  Actual Average Record
Temperature  
Mean Temperature 42 °F -  
Max Temperature 51 °F 51 °F 74 °F (1955)
Min Temperature 33 °F 37 °F 23 °F (2003)
Degree Days  
Heating Degree Days 23    
Moisture  
Dew Point 32 °F    
Average Humidity 74    
Maximum Humidity 87    
Minimum Humidity 58    
Precipitation  
Precipitation 0.01 in - - ()
Sea Level Pressure  
Sea Level Pressure 30.19 in    
Wind  
Wind Speed 11 mph (North)    
Max Wind Speed 16 mph    
Max Gust Speed 24 mph    
Visibility 10 miles    
Events      
Averages and records for this station are not official NWS values.
T = Trace of Precipitation, MM = Missing Value Source: NWS Daily Summary

Daily Weather History Graph

Daily Weather History Graph

Search for Another Location

Airport:

Trip Planner

Search our weather history database for the weather conditions in past years. The results will help you decide how hot, cold, wet, or windy it might be!

Date:

Astronomy

May. 03, 2013 Rise Set
Actual Time 6:32 AM EDT 8:58 PM EDT
Civil Twilight 5:59 AM EDT 9:31 PM EDT
Nautical Twilight 5:18 AM EDT 10:13 PM EDT
Astronomical Twilight 4:31 AM EDT 11:01 PM EDT
Moon 3:16 AM EDT (5/3) 2:34 PM EDT (5/3)
Length of Visible Light 15h 32m
Length of Day
14h 26m
Last Quarter, 37% of the Moon is Illuminated
May 3
Last Quarter
May 9
New
May 18
First Quarter
May 25
Full
May 31
Last Quarter

Hourly Weather History & Observations

Time (EDT) Temp. Windchill Dew Point Humidity Pressure Visibility Wind Dir Wind Speed Gust Speed Precip Events Conditions
12:15 AM 33.8 °F 24.3 °F 28.4 °F 81% 30.27 in 10.0 mi North 13.8 mph 24.2 mph N/A   Overcast
12:35 AM 33.8 °F 26.4 °F 28.4 °F 81% 30.27 in 10.0 mi NNW 9.2 mph 19.6 mph N/A   Overcast
12:55 AM 33.8 °F 24.3 °F 30.2 °F 87% 30.24 in 8.0 mi North 13.8 mph 18.4 mph N/A   Overcast
1:15 AM 33.8 °F 24.3 °F 28.4 °F 81% 30.26 in 10.0 mi North 13.8 mph 20.7 mph N/A   Overcast
1:35 AM 33.8 °F 25.8 °F 28.4 °F 81% 30.27 in 10.0 mi North 10.4 mph 21.9 mph N/A   Overcast
1:55 AM 33.8 °F 26.4 °F 30.2 °F 87% 30.27 in 10.0 mi NNW 9.2 mph 17.3 mph N/A   Overcast
2:15 AM 33.8 °F 27.0 °F 28.4 °F 81% 30.26 in 10.0 mi NNW 8.1 mph 16.1 mph N/A   Overcast
2:35 AM 33.8 °F 26.4 °F 30.2 °F 87% 30.25 in 10.0 mi NNW 9.2 mph - N/A   Overcast
2:55 AM 33.8 °F 25.8 °F 30.2 °F 87% 30.24 in 10.0 mi North 10.4 mph 18.4 mph N/A   Overcast
3:15 AM 33.8 °F 25.3 °F 30.2 °F 87% 30.23 in 10.0 mi North 11.5 mph 16.1 mph N/A   Overcast
3:35 AM 33.8 °F 24.8 °F 28.4 °F 81% 30.21 in 10.0 mi North 12.7 mph 21.9 mph N/A   Overcast
3:55 AM 33.8 °F 24.8 °F 28.4 °F 81% 30.23 in 10.0 mi North 12.7 mph 18.4 mph N/A   Overcast
4:15 AM 33.8 °F 25.8 °F 28.4 °F 81% 30.24 in 10.0 mi North 10.4 mph - N/A   Overcast
4:35 AM 33.8 °F 26.4 °F 28.4 °F 81% 30.23 in 10.0 mi NNW 9.2 mph 17.3 mph N/A   Overcast
4:55 AM 33.8 °F 26.4 °F 28.4 °F 81% 30.22 in 10.0 mi North 9.2 mph 18.4 mph N/A   Overcast
5:15 AM 33.8 °F 24.8 °F 28.4 °F 81% 30.21 in 10.0 mi North 12.7 mph 20.7 mph N/A   Overcast
5:35 AM 33.8 °F 25.3 °F 28.4 °F 81% 30.21 in 10.0 mi North 11.5 mph 20.7 mph N/A   Overcast
5:55 AM 33.8 °F 23.5 °F 28.4 °F 81% 30.20 in 10.0 mi North 16.1 mph 20.7 mph N/A   Overcast
6:15 AM 33.8 °F 25.3 °F 30.2 °F 87% 30.20 in 10.0 mi North 11.5 mph 20.7 mph N/A   Overcast
6:35 AM 33.8 °F 25.8 °F 28.4 °F 81% 30.22 in 10.0 mi North 10.4 mph 17.3 mph 0.01 in   Overcast
6:55 AM 33.8 °F 26.4 °F 30.2 °F 87% 30.21 in 10.0 mi North 9.2 mph - 0.01 in   Overcast
7:15 AM 33.8 °F 27.7 °F 30.2 °F 87% 30.22 in 10.0 mi North 6.9 mph - N/A   Overcast
7:35 AM 35.6 °F 29.2 °F 30.2 °F 81% 30.22 in 10.0 mi North 8.1 mph - N/A   Overcast
7:55 AM 35.6 °F 27.5 °F 30.2 °F 81% 30.22 in 10.0 mi North 11.5 mph 18.4 mph N/A   Overcast
8:15 AM 35.6 °F 28.6 °F 30.2 °F 81% 30.23 in 10.0 mi North 9.2 mph 16.1 mph N/A   Overcast
8:35 AM 35.6 °F 28.0 °F 30.2 °F 81% 30.22 in 10.0 mi North 10.4 mph - N/A   Overcast
8:55 AM 37.4 °F 29.3 °F 30.2 °F 75% 30.22 in 10.0 mi North 12.7 mph 17.3 mph N/A   Overcast
9:15 AM 37.4 °F 30.3 °F 30.2 °F 75% 30.22 in 10.0 mi North 10.4 mph 17.3 mph N/A   Overcast
9:35 AM 37.4 °F 30.3 °F 32.0 °F 81% 30.22 in 10.0 mi North 10.4 mph 16.1 mph N/A   Overcast
9:55 AM 37.4 °F 31.4 °F 32.0 °F 81% 30.21 in 10.0 mi North 8.1 mph 19.6 mph N/A   Overcast
10:15 AM 39.2 °F 33.0 °F 32.0 °F 75% 30.21 in 10.0 mi North 9.2 mph 19.6 mph N/A   Overcast
10:35 AM 39.2 °F 31.2 °F 32.0 °F 75% 30.20 in 10.0 mi North 13.8 mph 19.6 mph N/A   Overcast
10:55 AM 41.0 °F 34.3 °F 32.0 °F 70% 30.20 in 10.0 mi North 11.5 mph 20.7 mph N/A   Mostly Cloudy
11:15 AM 42.8 °F 37.0 °F 33.8 °F 70% 30.19 in 10.0 mi North 10.4 mph 19.6 mph N/A   Scattered Clouds
11:35 AM 44.6 °F 38.8 °F 33.8 °F 66% 30.18 in 10.0 mi North 11.5 mph 18.4 mph N/A   Scattered Clouds
11:55 AM 44.6 °F 39.2 °F 33.8 °F 66% 30.18 in 10.0 mi North 10.4 mph 18.4 mph N/A   Partly Cloudy
12:15 PM 46.4 °F 41.1 °F 35.6 °F 66% 30.18 in 10.0 mi NNW 11.5 mph 18.4 mph N/A   Mostly Cloudy
12:35 PM 44.6 °F 40.7 °F 35.6 °F 71% 30.19 in 10.0 mi NNW 6.9 mph 16.1 mph N/A   Overcast
12:55 PM 44.6 °F 40.2 °F 35.6 °F 71% 30.19 in 10.0 mi North 8.1 mph - N/A   Overcast
1:15 PM 46.4 °F 40.7 °F 35.6 °F 66% 30.17 in 10.0 mi North 12.7 mph 19.6 mph N/A   Overcast
1:35 PM 46.4 °F 41.1 °F 35.6 °F 66% 30.17 in 10.0 mi North 11.5 mph - N/A   Partly Cloudy
1:55 PM 46.4 °F 41.1 °F 35.6 °F 66% 30.16 in 10.0 mi North 11.5 mph 17.3 mph N/A   Clear
2:15 PM 48.2 °F - 37.4 °F 66% 30.16 in 10.0 mi North 10.4 mph 18.4 mph N/A   Clear
2:35 PM 51.8 °F - 37.4 °F 58% 30.15 in 10.0 mi NE 12.7 mph 18.4 mph N/A   Clear
2:55 PM 51.8 °F - 37.4 °F 58% 30.16 in 10.0 mi NE 12.7 mph - N/A   Scattered Clouds
3:15 PM 50.0 °F - 37.4 °F 62% 30.15 in 10.0 mi NE 11.5 mph 18.4 mph N/A   Scattered Clouds
3:35 PM 50.0 °F - 37.4 °F 62% 30.15 in 10.0 mi North 10.4 mph 17.3 mph N/A   Partly Cloudy
3:55 PM 51.8 °F - 37.4 °F 58% 30.14 in 10.0 mi North 12.7 mph - N/A   Scattered Clouds
4:15 PM 50.0 °F - 35.6 °F 58% 30.14 in 10.0 mi North 12.7 mph 20.7 mph N/A   Scattered Clouds
4:35 PM 50.0 °F - 37.4 °F 62% 30.15 in 10.0 mi North 9.2 mph - N/A   Mostly Cloudy
4:55 PM 48.2 °F - 35.6 °F 62% 30.15 in 10.0 mi North 12.7 mph 18.4 mph N/A   Overcast
5:15 PM 48.2 °F - 35.6 °F 62% 30.14 in 10.0 mi North 8.1 mph - N/A   Overcast
5:35 PM 46.4 °F 41.1 °F 35.6 °F 66% 30.14 in 10.0 mi North 11.5 mph 18.4 mph N/A   Overcast
5:55 PM 46.4 °F 41.1 °F 35.6 °F 66% 30.14 in 10.0 mi North 11.5 mph 18.4 mph N/A   Overcast
6:15 PM 44.6 °F 39.2 °F 33.8 °F 66% 30.14 in 10.0 mi North 10.4 mph 19.6 mph N/A   Overcast
6:35 PM 44.6 °F 38.1 °F 33.8 °F 66% 30.14 in 10.0 mi North 13.8 mph 20.7 mph N/A   Mostly Cloudy
6:55 PM 44.6 °F 39.7 °F 33.8 °F 66% 30.14 in 10.0 mi North 9.2 mph 17.3 mph N/A   Mostly Cloudy
7:15 PM 44.6 °F 38.1 °F 33.8 °F 66% 30.14 in 10.0 mi NNW 13.8 mph 18.4 mph N/A   Mostly Cloudy
7:35 PM 42.8 °F 36.2 °F 33.8 °F 70% 30.14 in 10.0 mi North 12.7 mph 18.4 mph N/A   Mostly Cloudy
7:55 PM 42.8 °F 37.5 °F 33.8 °F 70% 30.14 in 10.0 mi North 9.2 mph - N/A   Scattered Clouds
8:15 PM 42.8 °F 36.6 °F 32.0 °F 66% 30.14 in 10.0 mi North 11.5 mph - N/A   Mostly Cloudy
8:35 PM 41.0 °F 33.9 °F 30.2 °F 65% 30.14 in 10.0 mi North 12.7 mph 18.4 mph N/A   Overcast
8:55 PM 41.0 °F 35.2 °F 32.0 °F 70% 30.15 in 10.0 mi NNW 9.2 mph - N/A   Overcast
9:15 PM 41.0 °F 36.4 °F 30.2 °F 65% 30.16 in 10.0 mi North 6.9 mph - N/A   Overcast
9:35 PM 39.2 °F 32.5 °F 30.2 °F 70% 30.16 in 10.0 mi North 10.4 mph - N/A   Overcast
9:55 PM 39.2 °F 32.5 °F 30.2 °F 70% 30.16 in 10.0 mi North 10.4 mph 16.1 mph N/A   Overcast
10:15 PM 39.2 °F 34.2 °F 32.0 °F 75% 30.17 in 10.0 mi North 6.9 mph - N/A   Overcast
10:35 PM 39.2 °F 33.0 °F 32.0 °F 75% 30.17 in 10.0 mi North 9.2 mph - N/A   Overcast
10:55 PM 39.2 °F 33.6 °F 32.0 °F 75% 30.16 in 10.0 mi North 8.1 mph - N/A   Overcast
11:15 PM 39.2 °F 33.0 °F 32.0 °F 75% 30.16 in 10.0 mi North 9.2 mph - N/A   Overcast
11:35 PM 39.2 °F 32.5 °F 32.0 °F 75% 30.16 in 10.0 mi NNW 10.4 mph 17.3 mph N/A   Overcast
11:55 PM 39.2 °F 33.0 °F 32.0 °F 75% 30.15 in 10.0 mi North 9.2 mph - N/A   Overcast